Location: Catacaguana
(10.4120°N, 66.7591°W)
Time: 04:58:06
(UTC+00:00)

COSMOS 2406 - Pass Details

Date: 27 May 2022
Orbit: 842 x 864 km, 71.0° (Epoch: 26 June)

Event Time Altitude Azimuth Distance (km) Brightness Sun altitude
Exits shadow 09:12:30 - 194° (SSW) 3,264 5.9 -12.5°
Reaches altitude 10° 09:14:33 10° 194° (SSW) 2,478 5.3 -12.0°
Maximum altitude 09:20:16 86° 106° (ESE) 861 3.3 -10.8°
Drops below altitude 10° 09:26:00 10° 17° (NNE) 2,490 6.3 -9.5°
Sets 09:28:27 0° 17° (NNE) 3,429 7.0 -8.9°
